| time (UTC) | temp F | wind direction | speed knots | gust knots | rain 1hr in | rain 24hr in | rain mn in | humidity % | barometer mb |
| 20260505051828 | 52 | 45 | 1.7 | 2.6 | 0.00 | 0.00 | 0.00 | 77 | 1016.1 |
| 20260505051325 | 52 | 61 | 1.7 | 2.6 | 0.00 | 0.00 | 0.00 | 77 | 1016.1 |
| 20260505050823 | 52 | 61 | 1.7 | 2.6 | 0.00 | 0.00 | 0.00 | 77 | 1016.0 |
| 20260505050322 | 52 | 42 | 1.7 | 2.6 | 0.00 | 0.00 | 0.00 | 76 | 1016.1 |
| 20260505041751 | 55 | 64 | 1.7 | 2.6 | 0.00 | 0.00 | 0.00 | 71 | 1016.0 |
| 20260505041248 | 55 | 22 | 0.9 | 2.6 | 0.00 | 0.00 | 0.00 | 71 | 1016.1 |
| 20260505040746 | 55 | 53 | 1.7 | 2.6 | 0.00 | 0.00 | 0.00 | 70 | 1015.9 |
| 20260505040243 | 56 | 46 | 2.6 | 2.6 | 0.00 | 0.00 | 0.00 | 69 | 1016.1 |
| 20260505035740 | 56 | 71 | 0.9 | 2.6 | 0.00 | 0.00 | 0.00 | 69 | 1016.0 |
| 20260505035236 | 56 | 49 | 0.9 | 2.6 | 0.00 | 0.00 | 0.00 | 68 | 1015.8 |
| 20260505034733 | 57 | 51 | 1.7 | 1.7 | 0.00 | 0.00 | 0.00 | 67 | 1016.2 |
| 20260505034230 | 57 | 41 | 1.7 | 1.7 | 0.00 | 0.00 | 0.00 | 67 | 1016.2 |
| 20260505033727 | 57 | 52 | 1.7 | 2.6 | 0.00 | 0.00 | 0.00 | 66 | 1016.1 |
| 20260505033225 | 58 | 43 | 0.9 | 1.7 | 0.00 | 0.00 | 0.00 | 66 | 1016.2 |
| 20260505032723 | 58 | 64 | 1.7 | 1.7 | 0.00 | 0.00 | 0.00 | 64 | 1016.3 |
| 20260505032218 | 58 | 60 | 1.7 | 2.6 | 0.00 | 0.00 | 0.00 | 63 | 1016.3 |
| 20260505031716 | 58 | 70 | 1.7 | 1.7 | 0.00 | 0.00 | 0.00 | 63 | 1016.3 |
| 20260505031212 | 58 | 70 | 2.6 | 2.6 | 0.00 | 0.00 | 0.00 | 62 | 1016.3 |
| 20260505030709 | 59 | 36 | 1.7 | 1.7 | 0.00 | 0.00 | 0.00 | 63 | 1016.3 |
| 20260505030204 | 59 | 55 | 1.7 | 2.6 | 0.00 | 0.00 | 0.00 | 61 | 1016.2 |
| 20260505025700 | 59 | 65 | 1.7 | 2.6 | 0.00 | 0.00 | 0.00 | 62 | 1016.2 |
| 20260505025159 | 59 | 45 | 1.7 | 2.6 | 0.00 | 0.00 | 0.00 | 61 | 1016.4 |
| 20260505024656 | 60 | 80 | 1.7 | 2.6 | 0.00 | 0.00 | 0.00 | 60 | 1016.3 |
| 20260505024153 | 60 | 99 | 0.9 | 2.6 | 0.00 | 0.00 | 0.00 | 59 | 1016.3 |
| 20260505023651 | 60 | 28 | 0.9 | 1.7 | 0.00 | 0.00 | 0.00 | 58 | 1016.2 |
| 20260505023148 | 60 | 88 | 0.9 | 1.7 | 0.00 | 0.00 | 0.00 | 59 | 1016.3 |
| 20260505022645 | 61 | 68 | 1.7 | 1.7 | 0.00 | 0.00 | 0.00 | 56 | 1016.3 |
| 20260505022142 | 61 | 30 | 0.0 | 0.9 | 0.00 | 0.00 | 0.00 | 57 | 1016.2 |
| 20260505021639 | 62 | 84 | 0.9 | 1.7 | 0.00 | 0.00 | 0.00 | 54 | 1016.5 |
| 20260505021136 | 62 | 72 | 1.7 | 1.7 | 0.00 | 0.00 | 0.00 | 54 | 1016.3 |
| 20260505020631 | 62 | 70 | 0.9 | 1.7 | 0.00 | 0.00 | 0.00 | 54 | 1016.0 |
| 20260505020128 | 62 | 42 | 0.0 | 0.9 | 0.00 | 0.00 | 0.00 | 53 | 1016.1 |
| 20260505015625 | 62 | 48 | 1.7 | 1.7 | 0.00 | 0.00 | 0.00 | 53 | 1015.9 |
| 20260505015121 | 63 | 53 | 0.9 | 1.7 | 0.00 | 0.00 | 0.00 | 52 | 1016.1 |
| 20260505014618 | 63 | 65 | 1.7 | 1.7 | 0.00 | 0.00 | 0.00 | 51 | 1015.8 |
| 20260505014115 | 63 | 31 | 1.7 | 1.7 | 0.00 | 0.00 | 0.00 | 53 | 1015.8 |
| 20260505013614 | 63 | 40 | 1.7 | 1.7 | 0.00 | 0.00 | 0.00 | 52 | 1015.6 |
| 20260505013110 | 63 | 115 | 0.9 | 2.6 | 0.00 | 0.00 | 0.00 | 50 | 1015.7 |
| 20260505012608 | 63 | 52 | 1.7 | 1.7 | 0.00 | 0.00 | 0.00 | 51 | 1015.6 |
| 20260505012104 | 64 | 93 | 0.0 | 2.6 | 0.00 | 0.00 | 0.00 | 52 | 1015.6 |
| 20260505011600 | 64 | 58 | 1.7 | 1.7 | 0.00 | 0.00 | 0.00 | 49 | 1015.4 |
| 20260505011059 | 64 | 47 | 1.7 | 1.7 | 0.00 | 0.00 | 0.00 | 52 | 1015.4 |
| 20260505010558 | 64 | 57 | 1.7 | 2.6 | 0.00 | 0.00 | 0.00 | 46 | 1015.4 |
| 20260505010055 | 64 | 49 | 1.7 | 1.7 | 0.00 | 0.00 | 0.00 | 47 | 1015.5 |
| 20260505005551 | 65 | 52 | 1.7 | 1.7 | 0.00 | 0.00 | 0.00 | 51 | 1015.1 |
| 20260505005049 | 65 | 76 | 1.7 | 1.7 | 0.00 | 0.00 | 0.00 | 50 | 1015.2 |
| 20260505004546 | 65 | 66 | 1.7 | 2.6 | 0.00 | 0.00 | 0.00 | 48 | 1015.1 |
| 20260505004043 | 66 | 64 | 1.7 | 2.6 | 0.00 | 0.00 | 0.00 | 48 | 1015.0 |
| 20260505003540 | 66 | 61 | 1.7 | 2.6 | 0.00 | 0.00 | 0.00 | 45 | 1015.0 |
| 20260505003037 | 67 | 36 | 2.6 | 2.6 | 0.00 | 0.00 | 0.00 | 44 | 1015.1 |
| 20260505002537 | 67 | 48 | 2.6 | 2.6 | 0.00 | 0.00 | 0.00 | 43 | 1014.9 |
| 20260505002037 | 68 | 35 | 1.7 | 1.7 | 0.00 | 0.00 | 0.00 | 44 | 1014.8 |
| 20260505001534 | 68 | 60 | 2.6 | 2.6 | 0.00 | 0.00 | 0.00 | 43 | 1014.9 |
| 20260505001031 | 68 | 65 | 1.7 | 2.6 | 0.00 | 0.00 | 0.00 | 44 | 1014.9 |
| 20260505000528 | 69 | 29 | 1.7 | 2.6 | 0.00 | 0.00 | 0.00 | 43 | 1014.8 |
| 20260505000026 | 70 | 70 | 0.9 | 1.7 | 0.00 | 0.00 | 0.00 | 40 | 1015.0 |
| 20260504235522 | 70 | 68 | 1.7 | 2.6 | 0.00 | 0.00 | 0.00 | 38 | 1014.7 |
| 20260504235019 | 71 | 61 | 1.7 | 2.6 | 0.00 | 0.00 | 0.00 | 37 | 1014.6 |
| 20260504234516 | 71 | 61 | 1.7 | 1.7 | 0.00 | 0.00 | 0.00 | 37 | 1014.7 |
| 20260504234013 | 72 | 77 | 1.7 | 1.7 | 0.00 | 0.00 | 0.00 | 35 | 1014.8 |
| 20260504233508 | 72 | 93 | 0.9 | 1.7 | 0.00 | 0.00 | 0.00 | 33 | 1014.6 |
| 20260504233005 | 72 | 67 | 1.7 | 1.7 | 0.00 | 0.00 | 0.00 | 34 | 1014.6 |
| 20260504232502 | 73 | 79 | 0.9 | 1.7 | 0.00 | 0.00 | 0.00 | 33 | 1014.8 |
| 20260504232000 | 73 | 81 | 1.7 | 1.7 | 0.00 | 0.00 | 0.00 | 33 | 1014.6 |
| 20260504231456 | 73 | 87 | 1.7 | 3.5 | 0.00 | 0.00 | 0.00 | 31 | 1014.7 |
| 20260504230952 | 74 | 45 | 1.7 | 2.6 | 0.00 | 0.00 | 0.00 | 31 | 1014.7 |
| 20260504230449 | 74 | 59 | 1.7 | 2.6 | 0.00 | 0.00 | 0.00 | 31 | 1014.6 |
| 20260504225948 | 75 | 75 | 2.6 | 2.6 | 0.00 | 0.00 | 0.00 | 30 | 1014.7 |
| 20260504225444 | 76 | 35 | 3.5 | 3.5 | 0.00 | 0.00 | 0.00 | 30 | 1014.7 |
| 20260504224942 | 76 | 71 | 2.6 | 2.6 | 0.00 | 0.00 | 0.00 | 30 | 1014.5 |
| 20260504224438 | 77 | 54 | 2.6 | 2.6 | 0.00 | 0.00 | 0.00 | 29 | 1014.5 |
| 20260504223935 | 77 | 68 | 2.6 | 2.6 | 0.00 | 0.00 | 0.00 | 29 | 1014.7 |
| 20260504223431 | 78 | 102 | 2.6 | 2.6 | 0.00 | 0.00 | 0.00 | 28 | 1014.7 |
| 20260504222927 | 78 | 94 | 1.7 | 2.6 | 0.00 | 0.00 | 0.00 | 28 | 1014.7 |
| 20260504222425 | 79 | 142 | 1.7 | 3.5 | 0.00 | 0.00 | 0.00 | 27 | 1014.7 |
| 20260504221922 | 79 | 93 | 2.6 | 3.5 | 0.00 | 0.00 | 0.00 | 27 | 1014.6 |
| 20260504221419 | 80 | 98 | 2.6 | 3.5 | 0.00 | 0.00 | 0.00 | 26 | 1014.7 |
| 20260504220916 | 81 | 98 | 3.5 | 3.5 | 0.00 | 0.00 | 0.00 | 26 | 1014.6 |
| 20260504220413 | 81 | 105 | 2.6 | 3.5 | 0.00 | 0.00 | 0.00 | 27 | 1014.6 |
| 20260504215910 | 80 | 129 | 1.7 | 2.6 | 0.00 | 0.00 | 0.00 | 27 | 1014.5 |
| 20260504215407 | 80 | 110 | 1.7 | 2.6 | 0.00 | 0.00 | 0.00 | 28 | 1014.6 |
| 20260504214903 | 81 | 115 | 1.7 | 2.6 | 0.00 | 0.00 | 0.00 | 28 | 1014.4 |
| 20260504214359 | 81 | 95 | 1.7 | 2.6 | 0.00 | 0.00 | 0.00 | 27 | 1014.7 |
| 20260504213856 | 81 | 98 | 1.7 | 3.5 | 0.00 | 0.00 | 0.00 | 27 | 1014.7 |
| 20260504213352 | 81 | 114 | 2.6 | 3.5 | 0.00 | 0.00 | 0.00 | 26 | 1014.7 |
| 20260504212850 | 82 | 101 | 1.7 | 5.2 | 0.00 | 0.00 | 0.00 | 26 | 1014.6 |
| 20260504212345 | 82 | 76 | 2.6 | 3.5 | 0.00 | 0.00 | 0.00 | 25 | 1014.5 |
| 20260504211844 | 83 | 27 | 1.7 | 2.6 | 0.00 | 0.00 | 0.00 | 25 | 1014.4 |
| 20260504211339 | 83 | 94 | 3.5 | 5.2 | 0.00 | 0.00 | 0.00 | 27 | 1014.5 |
| 20260504210837 | 83 | 88 | 1.7 | 3.5 | 0.00 | 0.00 | 0.00 | 26 | 1014.3 |
| 20260504210334 | 83 | 82 | 2.6 | 3.5 | 0.00 | 0.00 | 0.00 | 27 | 1014.4 |
| 20260504205831 | 83 | 131 | 3.5 | 3.5 | 0.00 | 0.00 | 0.00 | 27 | 1014.5 |
| 20260504205329 | 83 | 47 | 1.7 | 2.6 | 0.00 | 0.00 | 0.00 | 28 | 1014.4 |
| 20260504204826 | 83 | 91 | 2.6 | 3.5 | 0.00 | 0.00 | 0.00 | 26 | 1014.4 |
| 20260504204325 | 83 | 138 | 2.6 | 3.5 | 0.00 | 0.00 | 0.00 | 27 | 1014.4 |
| 20260504203824 | 84 | 94 | 1.7 | 3.5 | 0.00 | 0.00 | 0.00 | 26 | 1014.6 |
| 20260504203320 | 83 | 358 | 1.7 | 2.6 | 0.00 | 0.00 | 0.00 | 26 | 1014.4 |
| 20260504202816 | 83 | 89 | 1.7 | 3.5 | 0.00 | 0.00 | 0.00 | 27 | 1014.5 |
| 20260504202314 | 83 | 31 | 0.0 | 3.5 | 0.00 | 0.00 | 0.00 | 28 | 1014.4 |
| 20260504201810 | 83 | 99 | 1.7 | 3.5 | 0.00 | 0.00 | 0.00 | 26 | 1014.7 |
| 20260504201308 | 84 | 114 | 2.6 | 3.5 | 0.00 | 0.00 | 0.00 | 29 | 1014.7 |
| 20260504200805 | 84 | 94 | 2.6 | 2.6 | 0.00 | 0.00 | 0.00 | 27 | 1014.7 |
| 20260504200301 | 84 | 95 | 1.7 | 2.6 | 0.00 | 0.00 | 0.00 | 28 | 1014.9 |
| 20260504195757 | 83 | 133 | 0.9 | 3.5 | 0.00 | 0.00 | 0.00 | 27 | 1014.9 |
| 20260504195253 | 83 | 89 | 1.7 | 2.6 | 0.00 | 0.00 | 0.00 | 26 | 1015.0 |
| 20260504194750 | 83 | 86 | 1.7 | 2.6 | 0.00 | 0.00 | 0.00 | 29 | 1015.1 |
| 20260504194247 | 82 | 92 | 2.6 | 3.5 | 0.00 | 0.00 | 0.00 | 28 | 1015.1 |
| 20260504193743 | 83 | 55 | 0.9 | 3.5 | 0.00 | 0.00 | 0.00 | 27 | 1015.1 |
| 20260504193240 | 83 | 99 | 1.7 | 2.6 | 0.00 | 0.00 | 0.00 | 27 | 1015.2 |
| 20260504192739 | 82 | 72 | 1.7 | 2.6 | 0.00 | 0.00 | 0.00 | 27 | 1015.5 |
| 20260504192236 | 82 | 21 | 1.7 | 2.6 | 0.00 | 0.00 | 0.00 | 27 | 1015.4 |
| 20260504191735 | 82 | 87 | 2.6 | 3.5 | 0.00 | 0.00 | 0.00 | 28 | 1015.1 |
| 20260504191231 | 81 | 73 | 1.7 | 2.6 | 0.00 | 0.00 | 0.00 | 29 | 1015.5 |
| 20260504190726 | 80 | 22 | 1.7 | 3.5 | 0.00 | 0.00 | 0.00 | 31 | 1015.6 |
| 20260504190223 | 80 | 357 | 1.7 | 3.5 | 0.00 | 0.00 | 0.00 | 30 | 1015.6 |
| 20260504185720 | 79 | 73 | 1.7 | 2.6 | 0.00 | 0.00 | 0.00 | 31 | 1015.8 |
| 20260504185217 | 79 | 109 | 1.7 | 3.5 | 0.00 | 0.00 | 0.00 | 30 | 1015.9 |
| 20260504184713 | 79 | 30 | 1.7 | 2.6 | 0.00 | 0.00 | 0.00 | 30 | 1015.8 |
| 20260504184209 | 78 | 35 | 1.7 | 3.5 | 0.00 | 0.00 | 0.00 | 30 | 1016.1 |
| 20260504183705 | 79 | 255 | 0.0 | 3.5 | 0.00 | 0.00 | 0.00 | 29 | 1015.9 |
| 20260504183202 | 78 | 117 | 1.7 | 2.6 | 0.00 | 0.00 | 0.00 | 29 | 1016.0 |
| 20260504182700 | 78 | 143 | 2.6 | 3.5 | 0.00 | 0.00 | 0.00 | 32 | 1016.1 |
| 20260504182157 | 78 | 80 | 1.7 | 3.5 | 0.00 | 0.00 | 0.00 | 32 | 1016.3 |
| 20260504181655 | 77 | 40 | 0.0 | 1.7 | 0.00 | 0.00 | 0.00 | 29 | 1016.1 |
| 20260504181152 | 77 | 282 | 1.7 | 3.5 | 0.00 | 0.00 | 0.00 | 28 | 1016.3 |
| 20260504180651 | 77 | 89 | 2.6 | 3.5 | 0.00 | 0.00 | 0.00 | 30 | 1016.3 |
| 20260504180149 | 77 | 68 | 2.6 | 3.5 | 0.00 | 0.00 | 0.00 | 29 | 1016.2 |
| 20260504175646 | 76 | 70 | 1.7 | 2.6 | 0.00 | 0.00 | 0.00 | 30 | 1016.4 |
| 20260504175142 | 75 | 54 | 1.7 | 2.6 | 0.00 | 0.00 | 0.00 | 31 | 1016.5 |
| 20260504174641 | 75 | 128 | 1.7 | 3.5 | 0.00 | 0.00 | 0.00 | 32 | 1016.6 |
| 20260504174137 | 74 | 143 | 2.6 | 2.6 | 0.00 | 0.00 | 0.00 | 32 | 1016.5 |
| 20260504173635 | 74 | 82 | 0.9 | 2.6 | 0.00 | 0.00 | 0.00 | 29 | 1016.4 |
| 20260504173132 | 74 | 97 | 2.6 | 2.6 | 0.00 | 0.00 | 0.00 | 33 | 1016.5 |
| 20260504172628 | 73 | 159 | 1.7 | 1.7 | 0.00 | 0.00 | 0.00 | 31 | 1016.8 |
| 20260504172125 | 73 | 146 | 2.6 | 3.5 | 0.00 | 0.00 | 0.00 | 31 | 1016.8 |
| 20260504171621 | 73 | 96 | 2.6 | 3.5 | 0.00 | 0.00 | 0.00 | 31 | 1016.8 |
| 20260504171119 | 73 | 160 | 1.7 | 3.5 | 0.00 | 0.00 | 0.00 | 33 | 1016.7 |
| 20260504170614 | 73 | 131 | 2.6 | 2.6 | 0.00 | 0.00 | 0.00 | 32 | 1016.9 |
| 20260504170112 | 72 | 37 | 0.9 | 2.6 | 0.00 | 0.00 | 0.00 | 35 | 1016.9 |
| 20260504150958 | 64 | 65 | 1.7 | 1.7 | 0.00 | 0.00 | 0.00 | 40 | 1018.9 |
| 20260504150455 | 63 | 84 | 1.7 | 1.7 | 0.00 | 0.00 | 0.00 | 46 | 1018.8 |
| 20260504140921 | 57 | 47 | 1.7 | 2.6 | 0.00 | 0.00 | 0.00 | 58 | 1018.9 |
| 20260504140417 | 57 | 74 | 0.9 | 1.7 | 0.00 | 0.00 | 0.00 | 58 | 1019.0 |
| 20260504130343 | 49 | 94 | 1.7 | 2.6 | 0.00 | 0.00 | 0.00 | 78 | 1018.6 |
| 20260504120306 | 41 | 43 | 2.6 | 2.6 | 0.00 | 0.00 | 0.00 | 90 | 1018.3 |
| 20260504110229 | 39 | 41 | 1.7 | 1.7 | 0.00 | 0.00 | 0.00 | 90 | 1018.0 |
| 20260504100153 | 40 | 41 | 1.7 | 2.6 | 0.00 | 0.00 | 0.00 | 88 | 1018.2 |
| 20260504090116 | 41 | 60 | 1.7 | 2.6 | 0.00 | 0.00 | 0.00 | 86 | 1018.4 |
| 20260504081546 | 43 | 52 | 2.6 | 2.6 | 0.00 | 0.00 | 0.00 | 81 | 1018.0 |
| 20260504081042 | 43 | 63 | 0.9 | 1.7 | 0.00 | 0.00 | 0.00 | 83 | 1017.7 |
| 20260504080539 | 43 | 79 | 0.9 | 1.7 | 0.00 | 0.00 | 0.00 | 82 | 1017.9 |